Location: Caltech
(34.1382°N, 118.1253°W)
Time: 22:15:09
(UTC-07:00)

Iridium 91 - Visible Passes

Search period start: 29 April 2016 00:00
Search period end: 09 May 2016 00:00
Orbit: 776 x 779 km, 86.4° (Epoch: 29 April)

Date Brightness Start Highest point End Pass type
(mag) Time Alt. Az. Time Alt. Az. Time Alt. Az.
29 Apr 7.7 03:55:09 10° NNE 03:59:23 25° E 04:03:36 10° SE visible
29 Apr 6.4 05:35:32 10° NNW 05:40:02 30° W 05:44:30 10° SW visible
30 Apr 8.3 03:23:21 10° NE 03:25:35 13° ENE 03:27:50 10° ESE visible
30 Apr 5.6 05:01:33 10° N 05:06:40 59° W 05:11:46 10° SSW visible
01 May 5.7 04:27:58 10° N 04:33:11 72° E 04:38:22 10° S visible
02 May 6.9 03:54:47 10° NNE 03:59:36 36° E 04:04:22 10° SSE visible
03 May 7.9 03:22:12 10° NE 03:25:52 19° E 03:29:32 10° SE visible
03 May 6.0 05:01:52 10° NNW 05:06:41 39° W 05:11:29 10° SSW visible
04 May 5.4 04:28:03 10° N 04:33:17 77° W 04:38:28 10° S visible
05 May 6.1 03:54:38 10° N 03:59:45 55° E 04:04:34 11° SSE visible
06 May 7.3 03:21:39 10° NNE 03:26:06 28° E 03:30:29 10° SE visible
06 May 6.6 05:02:23 10° NNW 05:06:40 26° W 05:10:55 10° SW visible
07 May 8.1 02:49:28 10° NE 02:52:20 15° ENE 02:55:11 10° ESE visible
07 May 5.7 04:28:18 10° NNW 04:33:19 51° W 04:36:54 19° SSW visible
08 May 5.5 03:54:38 10° N 03:59:52 82° E 04:02:57 25° S visible
